[[{"header":{"parameterUnit":"m.s-1","parameterCategory":2,"la1":30.2991,"la2":30.254,"lo1":-89.0895,"lo2":-89.0444,"dy":0.0017,"dx":0.0017,"nx":28,"ny":28,"refTime":"2024-08-20T03:00:00:Z","depth":"0","parameterNumber":2,"parameterNumberName":"U-component_of_CURRENTS"},"data":[0,0,0,0,0,0,0,0,0,0,0,0,0,0,0,0,0,0,0,0,0,0,0,0,0,0,0,0,0,0,0,0,0,0,0,0,0,0,0,0,0,0,0,0,0,0,0,0,0,0,0,0,0,0,0,0,0,0,0.2008,0.2008,0,0.1999,0.1999,0.1998,0.1989,0.1989,0.1989,0.1989,0.1986,0.1986,0.1986,0,0,0,0,0,0,0,0,0,0,0,0,0,0.2043,0.2042,0.2008,0.2008,0.2008,0.1999,0.1999,0.1998,0.1989,0.1989,0.1989,0.1989,0.1986,0.1986,0.1986,0,0,0,0,0,0,0,0,0,0,0,0,0,0.203,0.2042,0.2008,0.2002,0.2002,0.1999,0.1999,0.1998,0.1989,0.1989,0.1989,0.1989,0.1986,0.1986,0.1986,0.1989,0,0,0.1986,0.1986,0,0,0,0,0,0,0,0,0.203,0.2028,0.2003,0.2003,0.2002,0.1995,0.201,0.1996,0.1989,0.1994,0.1989,0.1989,0.199,0.1989,0.1987,0.1988,0.1988,0.1986,0.1986,0.1986,0.1986,0,0,0,0,0,0,0,0.2031,0.2029,0.2004,0.2003,0.2002,0.2009,0.2007,0.2007,0.1992,0.1993,0.1993,0.1992,0.1989,0.1987,0.1987,0.1988,0.1986,0.1986,0.1986,0.1986,0.2029,0.203,0,0,0,0,0,0,0.2032,0.203,0.2004,0.2004,0.2017,0.2008,0.2006,0.1997,0.1992,0.1991,0.1992,0.1992,0.1987,0.1987,0.1987,0.2019,0.1986,0.1986,0.1986,0.2028,0.2029,0.203,0,0,0,0,0,0,0.2032,0.2029,0.2005,0.2017,0.2015,0.2008,0.1998,0.1997,0.1996,0.1992,0.1991,0.1992,0.1987,0.1987,0.1993,0.2017,0.1986,0.1986,0.2026,0.2028,0.203,0.2064,0,0,0,0,0,0,0.2033,0.2029,0.2027,0.2017,0.2014,0.2006,0.1999,0.1997,0.1996,0.1995,0.1991,0.1991,0.1987,0.1993,0.1993,0.2017,0.1986,0.2025,0.2027,0.2029,0.2061,0.2066,0.2071,0,0,0,0,0,0.2035,0.203,0.2026,0.2024,0.2009,0.2007,0.2006,0.2001,0.1996,0.1998,0.1997,0.1991,0.2007,0.1993,0.1993,0.2018,0.2024,0.2026,0.2029,0.2059,0.2065,0.2071,0,0,0,0,0,0,0.2042,0.2028,0.2024,0.2015,0.2014,0.2005,0.2005,0.2002,0.2002,0.2001,0.1996,0.1996,0.201,0.201,0.1995,0.2038,0.2018,0.2021,0.2041,0.2047,0.2052,0.2042,0.1986,0,0,0,0,0,0.2043,0.2036,0.2027,0.2021,0.2019,0.2013,0.2012,0.2009,0.2006,0.2006,0.2004,0.201,0.2021,0.2029,0.2032,0.2052,0.2058,0.2072,0.2077,0.2081,0.2074,0.2112,0.212,0.2039,0.2039,0.2038,0,0,0.2046,0.2036,0.2033,0.2023,0.2019,0.2022,0.2011,0.201,0.2019,0.2006,0.2016,0.2019,0.2028,0.205,0.2059,0.2054,0.2109,0.2084,0.2087,0.2078,0.2115,0.2123,0.213,0.204,0.204,0.204,0,0,0.2049,0.2037,0.2035,0.2035,0.203,0.2029,0.2029,0.2024,0.2027,0.2038,0.2036,0.2053,0.2064,0.2081,0.2091,0.2125,0.2127,0.2133,0.2156,0.2194,0.2201,0.2207,0.2231,0.2239,0.2143,0.2144,0.2144,0,0.2054,0.2045,0.2037,0.2037,0.2037,0.2033,0.2036,0.2043,0.2044,0.2052,0.2046,0.2078,0.2081,0.2121,0.2132,0.2135,0.2151,0.2132,0.22,0.2206,0.2211,0.2235,0.2243,0.2145,0.2145,0.2145,0.2145,0,0.2058,0.2053,0.2051,0.205,0.2054,0.2053,0.2061,0.2069,0.2072,0.2083,0.2112,0.2122,0.2143,0.2157,0.2152,0.2201,0.2197,0.2195,0.2183,0.2222,0.2244,0.2252,0.2148,0.2148,0.2147,0.2146,0,0,0.2045,0.2054,0.2048,0.2047,0.2057,0.2053,0.2079,0.2094,0.2106,0.2128,0.2151,0.2183,0.2189,0.22,0.2209,0.2241,0.2294,0.2235,0.2236,0.2255,0.2373,0.2232,0.2227,0.2307,0.2309,0.231,0.2375,0,0.2045,0.2044,0.2054,0.2056,0.2052,0.2066,0.2088,0.2108,0.2125,0.2148,0.2183,0.2206,0.221,0.2221,0.2257,0.2275,0.2315,0.2276,0.2335,0.2337,0.2203,0.2231,0.2083,0.2115,0.2383,0.2384,0.2385,0,0.2028,0.2032,0.2034,0.2045,0.2046,0.2056,0.2075,0.2094,0.2141,0.2158,0.2202,0.2223,0.2276,0.2268,0.2345,0.232,0.2349,0.2367,0.237,0.2227,0.2209,0.2119,0.2119,0.2072,0.2397,0.2396,0.2395,0,0.1989,0.2005,0.2003,0.2007,0.2033,0.2041,0.2057,0.2095,0.2112,0.2165,0.2188,0.2253,0.228,0.2336,0.2369,0.2368,0.2438,0.2447,0.2355,0.2347,0.2221,0.2197,0.2172,0.2509,0.2508,0.2508,0.2508,0,0.1959,0.1949,0.1985,0.1979,0.1985,0.2013,0.2023,0.2053,0.2099,0.2124,0.2189,0.2222,0.2297,0.2343,0.2382,0.2375,0.2459,0.2352,0.235,0.2227,0.2204,0.2155,0.2154,0.2511,0.251,0.251,0.2509,0,0.1894,0.1918,0.1916,0.1952,0.1961,0.1961,0.1996,0.2012,0.2063,0.2098,0.212,0.2206,0.2252,0.2309,0.2385,0.2367,0.2307,0.2375,0.2208,0.2182,0.2002,0.2007,0.1903,0.1855,0.2276,0.2273,0.2271,0,0.1853,0.1853,0.1886,0.1893,0.1905,0.1917,0.1933,0.1983,0.2005,0.2085,0.2104,0.2161,0.2177,0.2217,0.2193,0.2207,0.2204,0.2077,0.2031,0.1955,0.1964,0.192,0.1888,0.1905,0.1899,0.1895,0.1891,0,0.1794,0.1814,0.1827,0.1844,0.1857,0.1866,0.1892,0.19,0.1964,0.1989,0.2024,0.2039,0.2045,0.1959,0.1945,0.1951,0.1932,0.198,0.1965,0.1702,0.1594,0.1559,0.1906,0.1851,0.1855,0.1858,0.186,0.1862,0.1756,0.1757,0.1788,0.1787,0.1808,0.1807,0.1781,0.1811,0.1816,0.181,0.1897,0.1844,0.1785,0.1717,0.1714,0.1575,0.1643,0.1512,0.1541,0.1516,0.1397,0.1624,0.1516,0.1518,0.152,0.1521,0.1523,0,0.1701,0.1713,0.1727,0.1728,0.1714,0.1743,0.1746,0.1696,0.1651,0.1656,0.1638,0.1526,0.1414,0.1383,0.1244,0.116,0.115,0.1133,0.108,0.1087,0.1345,0.1252,0.1002,0.1002,0.1002,0.1002,0.1002,0.1002,0.168,0.1665,0.1665,0.1623,0.162,0.1561,0.1534,0.1472,0.1442,0.131,0.1215,0.1204,0.1174,0.1048,0.0926,0.0905,0.0886,0.0769,0.0861,0.108,0.112,0.1157,0.107,0.0785,0.0785,0.0524,0.0522,0.0521]},{"header":{"parameterUnit":"m.s-1","parameterCategory":2,"la1":30.2991,"la2":30.254,"lo1":-89.0895,"lo2":-89.0444,"dy":0.0017,"dx":0.0017,"nx":28,"ny":28,"refTime":"2024-08-20T03:00:00:Z","depth":"0","parameterNumber":3,"parameterNumberName":"V-component_of_CURRENTS"},"data":[0,0,0,0,0,0,0,0,0,0,0,0,0,0,0,0,0,0,0,0,0,0,0,0,0,0,0,0,0,0,0,0,0,0,0,0,0,0,0,0,0,0,0,0,0,0,0,0,0,0,0,0,0,0,0,0,0,0,-0.0457,-0.0457,0,-0.0445,-0.0445,-0.0445,-0.0458,-0.0459,-0.0459,-0.046,-0.048,-0.048,-0.048,0,0,0,0,0,0,0,0,0,0,0,0,0,-0.0472,-0.0471,-0.0457,-0.0457,-0.0457,-0.0445,-0.0445,-0.0445,-0.0458,-0.0459,-0.0459,-0.046,-0.048,-0.048,-0.0481,0,0,0,0,0,0,0,0,0,0,0,0,0,-0.0463,-0.0471,-0.0457,-0.0462,-0.0462,-0.0445,-0.0445,-0.0445,-0.0458,-0.0459,-0.046,-0.046,-0.048,-0.048,-0.0481,-0.0467,0,0,-0.0481,-0.0481,0,0,0,0,0,0,0,0,-0.0464,-0.0463,-0.0461,-0.0462,-0.0462,-0.0454,-0.0458,-0.0454,-0.0458,-0.046,-0.046,-0.0461,-0.0474,-0.0474,-0.0471,-0.0468,-0.0469,-0.0481,-0.0481,-0.0481,-0.0481,0,0,0,0,0,0,0,-0.0464,-0.0463,-0.0453,-0.0461,-0.0461,-0.0458,-0.0457,-0.0457,-0.0464,-0.046,-0.0461,-0.0459,-0.0474,-0.047,-0.0471,-0.047,-0.0481,-0.0481,-0.0481,-0.0481,-0.0446,-0.0445,0,0,0,0,0,0,-0.0465,-0.0464,-0.0453,-0.0453,-0.0464,-0.0457,-0.0457,-0.0456,-0.0463,-0.0465,-0.0458,-0.0459,-0.047,-0.0471,-0.0472,-0.0443,-0.0481,-0.0481,-0.0481,-0.0447,-0.0446,-0.0444,0,0,0,0,0,0,-0.0466,-0.0465,-0.0454,-0.0458,-0.0456,-0.0456,-0.0455,-0.0455,-0.045,-0.0461,-0.0464,-0.0453,-0.047,-0.0472,-0.0458,-0.0445,-0.0481,-0.0482,-0.0448,-0.0446,-0.0445,-0.0394,0,0,0,0,0,0,-0.0466,-0.0465,-0.0463,-0.0458,-0.0456,-0.0436,-0.0454,-0.0455,-0.0448,-0.0449,-0.0457,-0.046,-0.0471,-0.0458,-0.0459,-0.0446,-0.0482,-0.0449,-0.0447,-0.0445,-0.0397,-0.0391,-0.0386,0,0,0,0,0,-0.0467,-0.0457,-0.0463,-0.0461,-0.0454,-0.0435,-0.0433,-0.0436,-0.0447,-0.0436,-0.0439,-0.046,-0.0447,-0.0457,-0.0458,-0.0445,-0.045,-0.0448,-0.0446,-0.04,-0.0392,-0.0386,0,0,0,0,0,0,-0.0462,-0.0457,-0.0464,-0.0454,-0.0443,-0.0437,-0.0427,-0.0431,-0.0424,-0.0426,-0.0442,-0.0444,-0.0428,-0.044,-0.0451,-0.0428,-0.0453,-0.0451,-0.0418,-0.0411,-0.0406,-0.0395,-0.0482,0,0,0,0,0,-0.046,-0.0452,-0.0447,-0.0438,-0.0432,-0.043,-0.0423,-0.0422,-0.0417,-0.0415,-0.0419,-0.0422,-0.0418,-0.0418,-0.0416,-0.0401,-0.0398,-0.0394,-0.0389,-0.0384,-0.0375,-0.0353,-0.0344,-0.0437,-0.0437,-0.0437,0,0,-0.0459,-0.0452,-0.045,-0.0436,-0.043,-0.0408,-0.0427,-0.041,-0.0391,-0.0418,-0.0393,-0.0401,-0.0409,-0.0391,-0.0386,-0.04,-0.0354,-0.0381,-0.0377,-0.037,-0.0349,-0.034,-0.0332,-0.0435,-0.0435,-0.0436,0,0,-0.0438,-0.0442,-0.0425,-0.0411,-0.0395,-0.039,-0.0383,-0.0371,-0.0366,-0.0341,-0.0357,-0.035,-0.0345,-0.0345,-0.0347,-0.0307,-0.0323,-0.0314,-0.0279,-0.0257,-0.0249,-0.0242,-0.0217,-0.0208,-0.0314,-0.0313,-0.0313,0,-0.0435,-0.0413,-0.0416,-0.0389,-0.0375,-0.0379,-0.0352,-0.034,-0.0324,-0.0315,-0.0326,-0.0308,-0.032,-0.0297,-0.0287,-0.0294,-0.0285,-0.0305,-0.0249,-0.0242,-0.0236,-0.0212,-0.0203,-0.0311,-0.0311,-0.0311,-0.0312,0,-0.0397,-0.0379,-0.0365,-0.0335,-0.032,-0.0296,-0.0282,-0.0265,-0.0263,-0.0254,-0.023,-0.0236,-0.0227,-0.0232,-0.0249,-0.0214,-0.0222,-0.0243,-0.0266,-0.0224,-0.0201,-0.0193,-0.0307,-0.0308,-0.0309,-0.0309,0,0,-0.0383,-0.0347,-0.0339,-0.032,-0.0291,-0.0271,-0.0239,-0.021,-0.0185,-0.0174,-0.0139,-0.0139,-0.0148,-0.0149,-0.0169,-0.0156,-0.0107,-0.0181,-0.0181,-0.0155,-0.0052,-0.0077,-0.0071,-0.012,-0.0119,-0.0118,-0.0051,0,-0.035,-0.0298,-0.0288,-0.0236,-0.021,-0.0203,-0.0171,-0.0147,-0.0131,-0.0096,-0.01,-0.0074,-0.0115,-0.0107,-0.0099,-0.0104,-0.0084,-0.0123,-0.0098,-0.0097,-0.0124,-0.0062,-0.0064,-0.0006,-0.0043,-0.0041,-0.004,0,-0.0307,-0.028,-0.023,-0.0189,-0.0177,-0.0148,-0.0103,-0.0072,-0.0034,-0.0022,-0.0002,-0.0002,0.0022,-0.0018,0.0006,-0.0018,-0.0027,-0.0034,-0.0032,-0.0067,-0.0106,-0.0057,0.001,-0.002,-0.0028,-0.0029,-0.0029,0,-0.0287,-0.0235,-0.0197,-0.0181,-0.0136,-0.0115,-0.0089,-0.0051,-0.0013,0.003,0.0067,0.008,0.0111,0.0098,0.0078,0.0049,0.0108,0.0064,0.0038,0.0036,0.0034,0.0028,0.0074,0.0092,0.0092,0.0092,0.0092,0,-0.0249,-0.0214,-0.0185,-0.016,-0.0109,-0.0091,-0.0031,-0.0006,0.0047,0.0115,0.0109,0.017,0.0143,0.0168,0.0125,0.0119,0.0149,0.0065,0.0058,0.0051,0.0047,0.0017,-0.0014,0.0094,0.0094,0.0093,0.0093,0,-0.022,-0.0201,-0.0155,-0.0114,-0.0095,-0.0057,0.001,0.0059,0.0096,0.019,0.0213,0.0261,0.0294,0.026,0.0259,0.0195,0.0158,0.0162,0.0156,0.0146,0.0062,0.0034,0.0075,0.0062,0.0145,0.0145,0.0145,0,-0.0197,-0.0173,-0.0122,-0.0085,-0.0062,-0.0007,0.0042,0.0083,0.0143,0.0254,0.0313,0.037,0.0423,0.0403,0.0311,0.0249,0.0197,0.0186,0.0118,0.0079,0.0043,0.0027,0.0012,0.0145,0.0145,0.0144,0.0144,0,-0.0154,-0.0142,-0.0102,-0.0034,0.0018,0.0079,0.0149,0.0201,0.0276,0.0357,0.0475,0.0524,0.0509,0.0455,0.0349,0.0288,0.0158,0.018,0.0153,0.0064,0.004,0.0017,0.0079,0.0144,0.0144,0.0144,0.0144,0.0144,-0.0118,-0.0085,-0.0033,0.0032,0.0092,0.017,0.0226,0.0308,0.0411,0.0537,0.0577,0.0646,0.0553,0.0412,0.0335,0.017,0.0166,0.0102,0.0079,0.0074,0.0036,0.0093,0.0131,0.0131,0.0131,0.0131,0.0131,0,-0.0059,-0.0022,0.0037,0.0117,0.0185,0.0204,0.0309,0.0369,0.0495,0.059,0.0679,0.0647,0.0541,0.0402,0.0191,0.0086,0.005,0.0035,0.0021,0.0015,0.0086,0.0058,0.0067,0.0067,0.0067,0.0067,0.0067,0.0067,-0.0021,0.0048,0.0071,0.0186,0.0241,0.0332,0.039,0.0481,0.0553,0.0644,0.066,0.0661,0.0553,0.0264,0.0075,0.0027,-0.0033,-0.0051,-0.0073,-0.0028,-0.0023,-0.0019,-0.0051,-0.0066,-0.0066,-0.0128,-0.0128,-0.0129]}],[{"header":{"parameterUnit":"m.s-1","parameterCategory":2,"la1":30.2991,"la2":30.254,"lo1":-89.0895,"lo2":-89.0444,"dy":0.0017,"dx":0.0017,"nx":28,"ny":28,"refTime":"2024-08-20T03:00:00:Z","depth":"2","parameterNumber":2,"parameterNumberName":"U-component_of_CURRENTS"},"data":[0,0,0,0,0,0,0,0,0,0,0,0,0,0,0,0,0,0,0,0,0,0,0,0,0,0,0,0,0,0,0,0,0,0,0,0,0,0,0,0,0,0,0,0,0,0,0,0,0,0,0,0,0,0,0,0,0,0,0.1394,0.1395,0,0.1472,0.1473,0.1474,0.1484,0.1483,0.1482,0.1481,0.1483,0.1484,0.1485,0,0,0,0,0,0,0,0,0,0,0,0,0,0.1394,0.1393,0.1394,0.1395,0.1396,0.1471,0.1473,0.1474,0.1485,0.1483,0.1482,0.1481,0.1483,0.1484,0.1485,0,0,0,0,0,0,0,0,0,0,0,0,0,0.1427,0.1393,0.1394,0.1408,0.141,0.1471,0.1473,0.1474,0.1485,0.1483,0.1482,0.1481,0.1483,0.1484,0.1486,0.1523,0,0,0.149,0.1491,0,0,0,0,0,0,0,0,0.1425,0.1427,0.1405,0.1407,0.1409,0.1465,0.1473,0.1486,0.1485,0.1459,0.1481,0.148,0.147,0.1472,0.1495,0.1523,0.1524,0.149,0.1491,0.1492,0.1492,0,0,0,0,0,0,0,0.1423,0.1425,0.1428,0.1406,0.1409,0.1458,0.146,0.1477,0.1472,0.1461,0.1462,0.1467,0.147,0.1493,0.1494,0.1524,0.149,0.1491,0.1492,0.1493,0.1584,0.1586,0,0,0,0,0,0,0.1402,0.1422,0.1425,0.143,0.1411,0.1458,0.1461,0.145,0.1474,0.1476,0.1468,0.1467,0.1492,0.1493,0.1494,0.1528,0.1492,0.1493,0.1494,0.1583,0.1584,0.1586,0,0,0,0,0,0,0.1402,0.1401,0.1422,0.1427,0.1432,0.1458,0.1448,0.1453,0.1476,0.1479,0.148,0.1485,0.149,0.1492,0.1492,0.1528,0.1494,0.1495,0.1581,0.1583,0.1585,0.1603,0,0,0,0,0,0,0.1401,0.14,0.1399,0.1424,0.1431,0.1448,0.1449,0.1455,0.148,0.148,0.1494,0.1493,0.1489,0.149,0.1493,0.153,0.1496,0.1579,0.1582,0.1585,0.1601,0.1606,0.1611,0,0,0,0,0,0.1401,0.1402,0.1398,0.1399,0.1423,0.1448,0.1457,0.1474,0.1482,0.1491,0.1491,0.1493,0.1512,0.1491,0.1495,0.1533,0.1577,0.1581,0.1584,0.1599,0.1605,0.1611,0,0,0,0,0,0,0.1405,0.1404,0.1399,0.14,0.1416,0.1449,0.1472,0.1482,0.1497,0.1498,0.1497,0.1496,0.1515,0.1522,0.1499,0.1571,0.1553,0.1557,0.1563,0.1569,0.1574,0.1573,0.1497,0,0,0,0,0,0.1403,0.1406,0.1409,0.1416,0.1423,0.1451,0.1469,0.1477,0.149,0.1498,0.1505,0.1522,0.1538,0.1546,0.1559,0.1592,0.1598,0.1626,0.1631,0.1635,0.164,0.167,0.1677,0.1598,0.1598,0.1598,0,0,0.1408,0.1412,0.1412,0.1419,0.1441,0.1458,0.1459,0.1488,0.1503,0.1495,0.1523,0.1533,0.1548,0.1578,0.1591,0.1585,0.1662,0.1639,0.1642,0.1645,0.1674,0.1682,0.1689,0.16,0.16,0.1599,0,0,0.1425,0.1422,0.1428,0.1442,0.1463,0.1479,0.1484,0.1511,0.1522,0.1548,0.1546,0.1564,0.1604,0.1611,0.1624,0.1667,0.1681,0.1694,0.1723,0.1753,0.1759,0.1765,0.1779,0.1786,0.1702,0.1703,0.1703,0,0.1432,0.1431,0.1438,0.1452,0.1466,0.1486,0.1498,0.1522,0.1544,0.1555,0.1556,0.162,0.1621,0.1658,0.1673,0.1678,0.1697,0.1694,0.1757,0.1763,0.1768,0.1782,0.1789,0.1704,0.1704,0.1704,0.1703,0,0.1443,0.1453,0.1466,0.1481,0.1499,0.152,0.1536,0.1558,0.1582,0.1603,0.1644,0.1654,0.1689,0.1708,0.1704,0.1756,0.1757,0.1752,0.1736,0.1777,0.1789,0.1796,0.1706,0.1705,0.1705,0.1705,0,0,0.1434,0.1462,0.1469,0.1476,0.1513,0.1524,0.1559,0.1586,0.161,0.1651,0.1686,0.1725,0.1741,0.1756,0.1764,0.1795,0.184,0.1799,0.18,0.1802,0.1907,0.1789,0.1785,0.1854,0.1855,0.1857,0.1898,0,0.1441,0.1462,0.1476,0.1506,0.1518,0.1545,0.1576,0.1607,0.1639,0.1679,0.1714,0.1755,0.1758,0.1782,0.1813,0.1832,0.1862,0.1829,0.1877,0.1878,0.1758,0.179,0.164,0.1655,0.1905,0.1906,0.1907,0,0.144,0.1458,0.1477,0.1511,0.1518,0.1542,0.1586,0.1612,0.1671,0.1702,0.1755,0.1784,0.1836,0.1833,0.1898,0.1883,0.19,0.1916,0.1918,0.1804,0.1772,0.1657,0.1658,0.1919,0.1918,0.1917,0.1916,0,0.142,0.1457,0.1469,0.1482,0.1526,0.1543,0.157,0.1624,0.165,0.172,0.1758,0.1821,0.1857,0.1903,0.1926,0.1929,0.1987,0.1988,0.1898,0.189,0.1768,0.1745,0.2035,0.2035,0.2035,0.2035,0.2035,0,0.1409,0.1419,0.1464,0.147,0.1499,0.1532,0.1566,0.1605,0.1668,0.1702,0.1767,0.1805,0.1882,0.1918,0.1942,0.1928,0.1999,0.1904,0.1893,0.1768,0.1746,0.198,0.1973,0.2037,0.2036,0.2036,0.2036,0,0.1368,0.1399,0.1412,0.1461,0.1487,0.15,0.1562,0.1588,0.1653,0.17,0.173,0.1811,0.1853,0.1898,0.1959,0.1927,0.1938,0.1915,0.175,0.1717,0.1823,0.1817,0.1832,0.1828,0.1825,0.1822,0.182,0,0.1339,0.1352,0.14,0.142,0.1441,0.1479,0.1517,0.1581,0.1604,0.1691,0.1707,0.1773,0.1777,0.1804,0.1783,0.1782,0.1867,0.1632,0.1595,0.1814,0.1804,0.1803,0.1801,0.1454,0.1449,0.1445,0.1442,0,0.1305,0.1327,0.1346,0.1385,0.1419,0.1446,0.1493,0.1506,0.1575,0.1605,0.1626,0.1636,0.1647,0.1558,0.1545,0.1535,0.1616,0.1543,0.1836,0.1508,0.1456,0.1446,0.1457,0.1405,0.1409,0.1411,0.1413,0.1415,0.1289,0.129,0.1333,0.1347,0.1389,0.1401,0.139,0.142,0.1433,0.1435,0.1497,0.1447,0.144,0.1328,0.1284,0.1256,0.1374,0.1321,0.1336,0.1355,0.1283,0.1225,0.1118,0.112,0.1122,0.1124,0.1125,0,0.1263,0.1278,0.1301,0.1321,0.1318,0.1357,0.137,0.1324,0.1279,0.1296,0.1276,0.1143,0.1058,0.1073,0.0952,0.0925,0.0951,0.0903,0.0933,0.0968,0.1,0.0913,0.0649,0.0648,0.0647,0.0646,0,0,0.1262,0.126,0.1253,0.124,0.1253,0.1221,0.1194,0.1133,0.1106,0.1027,0.0981,0.1029,0.1028,0.0837,0.0796,0.0702,0.0844,0.0677,0.1055,0.1127,0.1158,0.123,0.1133,0,0,0,0,0]},{"header":{"parameterUnit":"m.s-1","parameterCategory":2,"la1":30.2991,"la2":30.254,"lo1":-89.0895,"lo2":-89.0444,"dy":0.0017,"dx":0.0017,"nx":28,"ny":28,"refTime":"2024-08-20T03:00:00:Z","depth":"2","parameterNumber":3,"parameterNumberName":"V-component_of_CURRENTS"},"data":[0,0,0,0,0,0,0,0,0,0,0,0,0,0,0,0,0,0,0,0,0,0,0,0,0,0,0,0,0,0,0,0,0,0,0,0,0,0,0,0,0,0,0,0,0,0,0,0,0,0,0,0,0,0,0,0,0,0,0.0013,0.0013,0,-0.0006,-0.0007,-0.0007,-0.0026,-0.0026,-0.0026,-0.0026,-0.0031,-0.0032,-0.0032,0,0,0,0,0,0,0,0,0,0,0,0,0,-0.0006,-0.0005,0.0013,0.0013,0.0013,-0.0006,-0.0007,-0.0007,-0.0026,-0.0026,-0.0026,-0.0026,-0.0031,-0.0032,-0.0032,0,0,0,0,0,0,0,0,0,0,0,0,0,-0.0011,-0.0005,0.0013,0.0003,0.0002,-0.0006,-0.0007,-0.0007,-0.0026,-0.0026,-0.0026,-0.0026,-0.0031,-0.0032,-0.0032,-0.0032,0,0,-0.0032,-0.0032,0,0,0,0,0,0,0,0,-0.0011,-0.001,0.0004,0.0003,0.0002,-0.0012,-0.0015,-0.0014,-0.0026,-0.0018,-0.0026,-0.0026,-0.0022,-0.0023,-0.003,-0.0032,-0.0032,-0.0032,-0.0032,-0.0032,-0.0032,0,0,0,0,0,0,0,-0.001,-0.001,0.0003,0.0004,0.0003,-0.0014,-0.0014,-0.0015,-0.0021,-0.0019,-0.002,-0.0018,-0.0023,-0.003,-0.003,-0.0032,-0.0032,-0.0032,-0.0032,-0.0032,-0.0025,-0.0024,0,0,0,0,0,0,-0.0001,-0.0009,0.0003,0.0002,-0.0002,-0.0013,-0.0014,-0.0009,-0.0022,-0.0023,-0.0018,-0.0019,-0.003,-0.003,-0.003,-0.0016,-0.0032,-0.0032,-0.0033,-0.0025,-0.0025,-0.0024,0,0,0,0,0,0,-0.0001,0.0001,0.0004,-0.0002,-0.0003,-0.0012,-0.0007,-0.0009,-0.0017,-0.002,-0.0022,-0.0023,-0.003,-0.003,-0.0023,-0.0017,-0.0033,-0.0033,-0.0025,-0.0025,-0.0024,0.0004,0,0,0,0,0,0,-0.0001,0.0001,0.0003,-0.0001,-0.0002,0.0008,-0.0007,-0.001,-0.0015,-0.0016,-0.0025,-0.0026,-0.003,-0.0023,-0.0023,-0.0017,-0.0033,-0.0026,-0.0025,-0.0025,0.0002,0.0005,0.0007,0,0,0,0,0,-0.0002,0.0005,0.0003,0.0005,0.0003,0.0009,0.0007,-0.0002,-0.0015,-0.0012,-0.0017,-0.0025,-0.002,-0.0022,-0.0023,-0.0017,-0.0026,-0.0025,-0.0025,0.0001,0.0005,0.0007,0,0,0,0,0,0,-0.0003,0.0004,0.0002,0.001,0.0013,0.0007,0.0003,-0.0002,-0.0007,-0.0012,-0.0019,-0.0019,-0.0012,-0.0018,-0.0021,-0.0014,-0.0026,-0.0025,-0.0006,-0.0003,-0.0,0.002,-0.0033,0,0,0,0,0,-0.0001,0.0005,0.0011,0.0016,0.0017,0.0008,0.0006,0.0003,0.0001,-0.0002,-0.0003,-0.0008,-0.001,-0.0009,-0.001,-0.0004,-0.0006,-0.0002,0.0001,0.0003,0.0019,0.0017,0.0021,-0.0022,-0.0022,-0.0022,0,0,-0.0002,0.0003,0.0006,0.0016,0.0011,0.0022,0.0006,0.0007,0.002,-0.0001,0.0012,0.0002,-0.0007,0.0001,0.0003,-0.0002,0.0013,0.0004,0.0006,0.0021,0.0019,0.0023,0.0027,-0.0021,-0.0022,-0.0022,0,0,0.0009,0.0006,0.0018,0.0023,0.0027,0.0026,0.0029,0.0029,0.0031,0.0041,0.0029,0.0029,0.0026,0.0027,0.0024,0.0041,0.0026,0.0031,0.0061,0.0059,0.0063,0.0067,0.0065,0.0068,0.0032,0.0033,0.0033,0,0.0013,0.0027,0.0022,0.0037,0.0044,0.0031,0.0049,0.005,0.0057,0.0064,0.0052,0.005,0.0042,0.0054,0.0059,0.0048,0.0042,0.005,0.0063,0.0067,0.007,0.0067,0.007,0.0034,0.0034,0.0034,0.0034,0,0.0038,0.0046,0.0051,0.0069,0.0077,0.0085,0.0094,0.0102,0.0097,0.01,0.0111,0.0099,0.0101,0.0091,0.008,0.0096,0.0083,0.0066,0.0057,0.0076,0.0072,0.0074,0.0036,0.0036,0.0035,0.0035,0,0,0.0053,0.0069,0.0069,0.0084,0.0094,0.0106,0.0125,0.0146,0.0162,0.0158,0.0182,0.0171,0.0159,0.0156,0.0139,0.0137,0.0146,0.0113,0.0112,0.0115,0.0141,0.0119,0.012,0.0127,0.0128,0.0128,0.0129,0,0.0075,0.0109,0.0112,0.0142,0.0159,0.0158,0.018,0.0195,0.0201,0.0222,0.0207,0.0219,0.0185,0.0185,0.0178,0.016,0.0155,0.0148,0.0121,0.0121,0.0101,0.0123,0.0127,0.0127,0.0131,0.0131,0.0132,0,0.0099,0.0119,0.0156,0.0183,0.019,0.0208,0.0239,0.0261,0.028,0.0283,0.0287,0.0277,0.0283,0.0246,0.0227,0.0222,0.0189,0.0167,0.0166,0.0142,0.0104,0.0109,0.0131,0.0136,0.0136,0.0135,0.0135,0,0.0116,0.0147,0.0179,0.0188,0.0219,0.0236,0.0253,0.0277,0.0307,0.0328,0.0349,0.0339,0.0348,0.0308,0.0261,0.0246,0.0236,0.0206,0.0154,0.0152,0.0151,0.0147,0.0191,0.0191,0.0191,0.0191,0.0191,0,0.0139,0.0162,0.0187,0.0205,0.0243,0.0258,0.0302,0.0315,0.0352,0.0401,0.0384,0.0416,0.0365,0.0351,0.029,0.0238,0.0256,0.0173,0.0156,0.0159,0.0156,0.016,0.0157,0.0191,0.0191,0.0191,0.0191,0,0.0158,0.0171,0.0212,0.0245,0.0252,0.0285,0.0332,0.0372,0.0395,0.0461,0.0473,0.0487,0.0471,0.0409,0.0354,0.0285,0.0227,0.0197,0.0206,0.0189,0.0136,0.0134,0.0149,0.0148,0.0147,0.0147,0.0147,0,0.0173,0.0193,0.0238,0.0265,0.0281,0.0322,0.0355,0.0387,0.0439,0.0507,0.0549,0.0554,0.056,0.0468,0.036,0.0255,0.0235,0.0177,0.0146,0.0153,0.0134,0.0133,0.0132,0.0154,0.0154,0.0153,0.0153,0,0.0203,0.0218,0.0252,0.0301,0.0339,0.039,0.0441,0.0485,0.0544,0.0592,0.0656,0.0662,0.0588,0.049,0.0345,0.0268,0.0193,0.0167,0.0187,0.0158,0.0157,0.0138,0.0137,0.0151,0.0151,0.0151,0.0152,0.0152,0.0222,0.0253,0.0292,0.0344,0.0389,0.0455,0.0501,0.0561,0.0633,0.0703,0.0714,0.0705,0.0613,0.0419,0.0307,0.0181,0.0185,0.0123,0.0124,0.0126,0.0121,0.0118,0.0104,0.0104,0.0104,0.0104,0.0104,0,0.0251,0.0281,0.033,0.0392,0.0448,0.0467,0.0558,0.06,0.0677,0.0718,0.0745,0.064,0.0535,0.042,0.0235,0.0125,0.0117,0.0083,0.0102,0.0105,0.0107,0.0102,0.008,0.0079,0.0079,0.0078,0,0,0.0267,0.0314,0.0341,0.0426,0.0471,0.0542,0.0597,0.065,0.0685,0.0709,0.0696,0.0676,0.055,0.0411,0.0281,0.0177,0.0158,0.015,0.018,0.022,0.0224,0.0141,0.0136,0,0,0,0,0]}],[{"header":{"parameterUnit":"m.s-1","parameterCategory":2,"la1":30.2991,"la2":30.254,"lo1":-89.0895,"lo2":-89.0444,"dy":0.0017,"dx":0.0017,"nx":28,"ny":28,"refTime":"2024-08-20T03:00:00:Z","depth":"4","parameterNumber":2,"parameterNumberName":"U-component_of_CURRENTS"},"data":[0,0,0,0,0,0,0,0,0,0,0,0,0,0,0,0,0,0,0,0,0,0,0,0,0,0,0,0,0,0,0,0,0,0,0,0,0,0,0,0,0,0,0,0,0,0,0,0,0,0,0,0,0,0,0,0,0,0,0.0542,0.0542,0,0.0533,0.0532,0.0532,0.0551,0.0552,0.0553,0.0554,0.0611,0.0612,0.0612,0,0,0,0,0,0,0,0,0,0,0,0,0,0.0519,0.0519,0.0542,0.0542,0.0543,0.0533,0.0532,0.0532,0.0551,0.0552,0.0553,0.0555,0.0611,0.0612,0.0612,0,0,0,0,0,0,0,0,0,0,0,0,0,0.0516,0.0519,0.0542,0.0555,0.0557,0.0533,0.0532,0.0531,0.055,0.0552,0.0554,0.0555,0.0611,0.0612,0.0612,0.0582,0,0,0.0614,0.0615,0,0,0,0,0,0,0,0,0.0516,0.0516,0.0553,0.0554,0.0556,0.055,0.0545,0.0554,0.055,0.0547,0.0554,0.0556,0.0599,0.0601,0.0586,0.0585,0.0588,0.0615,0.0615,0.0615,0.0615,0,0,0,0,0,0,0,0.0517,0.0517,0.0533,0.0553,0.0555,0.0543,0.0544,0.0546,0.056,0.0547,0.055,0.0557,0.06,0.0586,0.0588,0.0588,0.0614,0.0615,0.0616,0.0616,0.0672,0.0673,0,0,0,0,0,0,0.053,0.0517,0.0533,0.0533,0.0546,0.0542,0.0543,0.0545,0.0559,0.0564,0.0556,0.0558,0.0584,0.0587,0.0591,0.0653,0.0615,0.0616,0.0616,0.0671,0.0672,0.0673,0,0,0,0,0,0,0.053,0.0531,0.0534,0.053,0.053,0.0542,0.0543,0.0544,0.0556,0.0566,0.0571,0.057,0.0585,0.059,0.0637,0.0652,0.0616,0.0617,0.067,0.0671,0.0673,0.0716,0,0,0,0,0,0,0.0529,0.0531,0.0539,0.053,0.0531,0.0541,0.0542,0.0543,0.0559,0.0562,0.0579,0.0585,0.0587,0.0636,0.0637,0.0652,0.0617,0.0668,0.067,0.0672,0.0713,0.0719,0.0724,0,0,0,0,0,0.0528,0.0533,0.054,0.0542,0.0541,0.0542,0.054,0.055,0.0558,0.0565,0.0595,0.0585,0.0649,0.0638,0.0639,0.0655,0.0667,0.067,0.0672,0.0711,0.0718,0.0724,0,0,0,0,0,0,0.0524,0.0536,0.0543,0.0551,0.0558,0.0548,0.0557,0.0559,0.0581,0.0598,0.0603,0.0611,0.066,0.065,0.0637,0.0677,0.0654,0.0657,0.0683,0.069,0.0695,0.0693,0.0618,0,0,0,0,0,0.0528,0.0537,0.0545,0.0552,0.0561,0.056,0.0563,0.0574,0.059,0.06,0.0616,0.0637,0.0662,0.0674,0.0694,0.071,0.0711,0.072,0.0725,0.0729,0.073,0.0764,0.0772,0.0681,0.0681,0.0681,0,0,0.0528,0.0536,0.0542,0.0553,0.0557,0.0569,0.0566,0.0584,0.0595,0.0604,0.0636,0.0664,0.0676,0.0709,0.0726,0.0706,0.0755,0.0732,0.0736,0.0734,0.0767,0.0776,0.0784,0.0683,0.0683,0.0682,0,0,0.0533,0.0543,0.0557,0.0564,0.0587,0.0588,0.06,0.0611,0.0622,0.0654,0.0674,0.0712,0.0735,0.0748,0.0756,0.0796,0.0792,0.0806,0.0819,0.0853,0.0861,0.0867,0.0875,0.0882,0.0796,0.0796,0.0796,0,0.0535,0.0549,0.056,0.0576,0.0585,0.0601,0.0617,0.0623,0.065,0.0668,0.0678,0.0739,0.0747,0.0786,0.0805,0.0806,0.0826,0.0794,0.086,0.0867,0.0873,0.0879,0.0887,0.0799,0.0798,0.0798,0.0798,0,0.0548,0.0564,0.0573,0.0598,0.061,0.0624,0.0643,0.0666,0.0687,0.07,0.0757,0.0778,0.0814,0.0821,0.0826,0.0875,0.0875,0.0874,0.0843,0.0885,0.0889,0.0895,0.0802,0.0801,0.08,0.08,0,0,0.0543,0.0574,0.0581,0.0592,0.0623,0.0631,0.0662,0.0691,0.0719,0.0753,0.0786,0.083,0.0858,0.0868,0.0883,0.0903,0.0957,0.0912,0.0913,0.0918,0.1031,0.094,0.0939,0.0984,0.0986,0.0987,0.1014,0,0.0551,0.0574,0.0593,0.0618,0.0631,0.0655,0.0679,0.0714,0.0746,0.0785,0.0815,0.0863,0.0869,0.0902,0.0927,0.0964,0.098,0.0949,0.0991,0.0991,0.0905,0.0945,0.0992,0.1019,0.102,0.1021,0.1022,0,0.0564,0.0576,0.0599,0.0626,0.0637,0.066,0.0707,0.0736,0.0795,0.082,0.0876,0.0909,0.0961,0.0952,0.1024,0.1016,0.1028,0.1038,0.1039,0.0943,0.0913,0.097,0.1034,0.1033,0.1033,0.1032,0.1031,0,0.0549,0.0581,0.0595,0.0602,0.064,0.0666,0.0701,0.076,0.079,0.0861,0.0894,0.0959,0.1001,0.1041,0.107,0.1066,0.1132,0.112,0.104,0.1033,0.1087,0.1079,0.1156,0.1156,0.1156,0.1156,0.1156,0,0.0537,0.0555,0.0594,0.0598,0.0628,0.0671,0.072,0.0758,0.0826,0.0865,0.0927,0.096,0.1034,0.1078,0.1092,0.1089,0.1153,0.1047,0.104,0.1103,0.1097,0.1091,0.1083,0.1157,0.1157,0.1157,0.1157,0,0.0517,0.054,0.0558,0.0601,0.0619,0.0651,0.0722,0.0758,0.0831,0.0884,0.0911,0.0987,0.1042,0.1087,0.1142,0.1106,0.1112,0.1088,0.1146,0.1141,0.0981,0.0976,0.1,0.0997,0.0995,0.0993,0.0991,0,0.0502,0.051,0.0551,0.0567,0.0591,0.0644,0.0678,0.0751,0.0788,0.0885,0.0901,0.098,0.1019,0.1031,0.1074,0.1084,0.1065,0.1053,0.1018,0.0978,0.0969,0.0966,0.0964,0.0987,0.0987,0.0986,0.0986,0,0.0472,0.0497,0.0512,0.0544,0.0578,0.0599,0.0658,0.0676,0.0762,0.0832,0.0877,0.0902,0.0949,0.0982,0.0998,0.0999,0.1057,0.1027,0.1032,0.0999,0.0962,0.0955,0.0956,0.0977,0.0978,0.0979,0.098,0,0.0459,0.0458,0.0487,0.0517,0.055,0.0553,0.0581,0.0628,0.0671,0.0783,0.0793,0.0871,0.0945,0.0937,0.0951,0.0948,0.0924,0.0884,0.0895,0.0905,0.0858,0.0797,0.0758,0,0,0,0,0,0.0445,0.0445,0.0459,0.0473,0.0505,0.0523,0.0567,0.0599,0.0681,0.0694,0.0745,0.0783,0.0808,0.0845,0.0821,0.0882,0.0914,0.0846,0.087,0.0931,0.094,0.0892,0,0,0,0,0,0,0.043,0.0448,0.0445,0.0444,0.045,0.0466,0.049,0.0534,0.0549,0.064,0.0667,0.0729,0.0772,0.0827,0.0811,0.0817,0.081,0.0893,0.089,0.0925,0.0934,0.0942,0.0895,0,0,0,0,0]},{"header":{"parameterUnit":"m.s-1","parameterCategory":2,"la1":30.2991,"la2":30.254,"lo1":-89.0895,"lo2":-89.0444,"dy":0.0017,"dx":0.0017,"nx":28,"ny":28,"refTime":"2024-08-20T03:00:00:Z","depth":"4","parameterNumber":3,"parameterNumberName":"V-component_of_CURRENTS"},"data":[0,0,0,0,0,0,0,0,0,0,0,0,0,0,0,0,0,0,0,0,0,0,0,0,0,0,0,0,0,0,0,0,0,0,0,0,0,0,0,0,0,0,0,0,0,0,0,0,0,0,0,0,0,0,0,0,0,0,0.0164,0.0164,0,0.0178,0.0178,0.0178,0.019,0.0189,0.0189,0.0189,0.0172,0.0172,0.0171,0,0,0,0,0,0,0,0,0,0,0,0,0,0.0152,0.0153,0.0164,0.0164,0.0164,0.0178,0.0178,0.0178,0.019,0.0189,0.0189,0.0189,0.0172,0.0172,0.0171,0,0,0,0,0,0,0,0,0,0,0,0,0,0.0163,0.0153,0.0164,0.017,0.017,0.0177,0.0178,0.0178,0.019,0.0189,0.0189,0.0189,0.0172,0.0172,0.0171,0.0169,0,0,0.0169,0.0169,0,0,0,0,0,0,0,0,0.0162,0.0163,0.0169,0.0169,0.017,0.018,0.0167,0.0173,0.019,0.0184,0.0189,0.0189,0.0171,0.017,0.0176,0.0168,0.0167,0.0169,0.0169,0.0168,0.0168,0,0,0,0,0,0,0,0.0161,0.0163,0.0171,0.0169,0.0169,0.0173,0.0175,0.0169,0.0179,0.0185,0.0185,0.0184,0.0171,0.0177,0.0176,0.0167,0.0169,0.0169,0.0168,0.0168,0.0148,0.0148,0,0,0,0,0,0,0.0156,0.0162,0.0171,0.0171,0.0164,0.0173,0.0175,0.0178,0.0179,0.0179,0.0184,0.0184,0.0178,0.0176,0.0175,0.017,0.0168,0.0168,0.0168,0.0148,0.0148,0.0148,0,0,0,0,0,0,0.0156,0.0157,0.017,0.0165,0.0167,0.0173,0.0177,0.0179,0.0184,0.0179,0.0178,0.0187,0.0178,0.0176,0.0167,0.0169,0.0168,0.0167,0.0149,0.0148,0.0148,0.0161,0,0,0,0,0,0,0.0155,0.0157,0.0159,0.0165,0.0167,0.0175,0.0177,0.0179,0.0182,0.0183,0.0181,0.018,0.0177,0.0168,0.0167,0.0169,0.0167,0.0149,0.0149,0.0148,0.0161,0.0162,0.0162,0,0,0,0,0,0.0155,0.0159,0.0159,0.016,0.017,0.0175,0.0177,0.0182,0.0182,0.0186,0.0182,0.018,0.0165,0.0168,0.0166,0.0168,0.0149,0.0149,0.0148,0.0161,0.0162,0.0162,0,0,0,0,0,0,0.0154,0.016,0.0161,0.0166,0.0169,0.0176,0.0179,0.0181,0.0183,0.0183,0.0177,0.0175,0.0168,0.0164,0.0167,0.016,0.0157,0.0156,0.0167,0.0168,0.0168,0.0177,0.0166,0,0,0,0,0,0.0155,0.0163,0.0164,0.0169,0.0169,0.0174,0.0176,0.0181,0.0181,0.0182,0.018,0.0174,0.0166,0.0164,0.0157,0.0154,0.0141,0.0153,0.0154,0.0154,0.016,0.0136,0.0134,0.0147,0.0147,0.0147,0,0,0.0156,0.0161,0.0164,0.017,0.0173,0.0178,0.0176,0.0181,0.0187,0.0178,0.0184,0.0174,0.0164,0.0161,0.0157,0.0158,0.0143,0.0154,0.0155,0.016,0.0135,0.0134,0.0133,0.0147,0.0147,0.0147,0,0,0.0163,0.0165,0.0172,0.0175,0.0179,0.0183,0.0183,0.0188,0.0191,0.0194,0.0185,0.0174,0.0171,0.0162,0.0156,0.0154,0.0143,0.0154,0.0168,0.0144,0.0143,0.0142,0.0121,0.0118,0.0158,0.0158,0.0158,0,0.0165,0.0176,0.0175,0.0182,0.0187,0.0184,0.0193,0.0194,0.0198,0.02,0.0197,0.0184,0.0171,0.0162,0.0163,0.0155,0.0143,0.0168,0.0145,0.0143,0.0142,0.0121,0.0118,0.0158,0.0158,0.0158,0.0158,0,0.0176,0.0186,0.0189,0.02,0.0203,0.0212,0.021,0.0214,0.0216,0.0218,0.0212,0.0193,0.0188,0.0179,0.0172,0.0158,0.0153,0.0145,0.0145,0.0142,0.012,0.0116,0.0159,0.0159,0.0159,0.0159,0,0,0.0185,0.0197,0.0199,0.021,0.0216,0.0223,0.0227,0.0235,0.0242,0.0236,0.0242,0.0219,0.0212,0.0205,0.0188,0.0169,0.0142,0.0159,0.0157,0.0141,0.0094,0.0098,0.0094,0.0133,0.0133,0.0132,0.0082,0,0.0197,0.0218,0.0219,0.024,0.025,0.025,0.0258,0.0263,0.0262,0.0265,0.0242,0.0239,0.0221,0.0218,0.0194,0.0159,0.0134,0.0157,0.0098,0.0096,0.0102,0.009,0.0131,0.0079,0.0078,0.0077,0.0077,0,0.0206,0.0223,0.0246,0.0268,0.0272,0.0283,0.0299,0.0308,0.0304,0.0302,0.0291,0.0275,0.0249,0.023,0.0167,0.0186,0.0143,0.011,0.0107,0.0105,0.0092,0.0083,0.0069,0.007,0.007,0.0071,0.0071,0,0.0214,0.0239,0.0263,0.0271,0.0293,0.0305,0.0318,0.0322,0.0335,0.0328,0.0332,0.0298,0.0283,0.0228,0.0165,0.0167,0.0092,0.0083,0.0041,0.0041,0.0047,0.0049,0.0029,0.0029,0.0029,0.0029,0.0029,0,0.0226,0.0245,0.0272,0.0286,0.0318,0.0326,0.0355,0.0359,0.0368,0.0382,0.0356,0.0347,0.0282,0.0234,0.0172,0.0099,0.0094,0.0042,0.0027,0.0053,0.0056,0.0044,0.0046,0.0027,0.0028,0.0028,0.0028,0,0.0229,0.0246,0.0276,0.0309,0.0323,0.0347,0.0384,0.0403,0.0408,0.0421,0.0422,0.0385,0.0326,0.0256,0.0162,0.0112,0.0038,0.0008,0.0045,0.0033,-0.0,0.0003,-0.004,-0.004,-0.004,-0.004,-0.004,0,0.0231,0.0248,0.0293,0.0317,0.0335,0.0373,0.04,0.0421,0.0439,0.0439,0.0443,0.0398,0.0362,0.0237,0.0159,0.0046,0.0025,-0.0015,-0.0011,0.0003,-0.0008,-0.0004,0.0,-0.0041,-0.0041,-0.0041,-0.0041,0,0.024,0.0257,0.0284,0.033,0.0366,0.0407,0.0443,0.0455,0.0476,0.0483,0.0456,0.0397,0.033,0.0237,0.0153,0.0067,0.0014,-0.0018,-0.0018,-0.0015,0.0,-0.0009,-0.0005,-0.0042,-0.0042,-0.0042,-0.0042,0,0.0246,0.0264,0.03,0.034,0.0385,0.0422,0.0443,0.0462,0.0481,0.0479,0.0465,0.0397,0.036,0.0246,0.0164,0.0091,0.0068,0.0036,0.0032,0.0032,0.007,0.0102,0.0076,0,0,0,0,0,0.0251,0.0269,0.0307,0.0347,0.039,0.042,0.0463,0.0481,0.0495,0.0481,0.0476,0.0414,0.0301,0.025,0.0177,0.0153,0.0052,0.0063,0.0012,-0.0047,-0.0046,-0.0013,0,0,0,0,0,0,0.0255,0.0285,0.0303,0.0345,0.0373,0.0423,0.0453,0.0468,0.046,0.0461,0.0405,0.0387,0.028,0.0343,0.0172,0.0151,0.0105,0.0017,0.0015,-0.0047,-0.0047,-0.0046,-0.0012,0,0,0,0,0]}]]